Weather History for Freeport, IL

Change the Weather History Date:

Thursday, January 17, 2013

  Actual Average Record
Temperature  
Mean Temperature 27 °F -  
Max Temperature 36 °F 26 °F 53 °F (1990)
Min Temperature 18 °F 8 °F -21 °F (1977)
Degree Days  
Heating Degree Days 38    
Moisture  
Dew Point 15 °F    
Average Humidity 67    
Maximum Humidity 87    
Minimum Humidity 47    
Precipitation  
Precipitation 0.00 in - - ()
Sea Level Pressure  
Sea Level Pressure 30.31 in    
Wind  
Wind Speed 8 mph (West)    
Max Wind Speed 14 mph    
Max Gust Speed 20 mph    
Visibility 10 miles    
Events      
Averages and records for this station are not official NWS values.
T = Trace of Precipitation, MM = Missing Value Source: NWS Daily Summary

Daily Weather History Graph

Daily Weather History Graph

Search for Another Location

Airport:

Trip Planner

Search our weather history database for the weather conditions in past years. The results will help you decide how hot, cold, wet, or windy it might be!

Date:

Astronomy

Jan. 17, 2013 Rise Set
Actual Time 7:23 AM CST 4:54 PM CST
Civil Twilight 6:52 AM CST 5:24 PM CST
Nautical Twilight 6:18 AM CST 5:59 PM CST
Astronomical Twilight 5:44 AM CST 6:32 PM CST
Moon 10:22 AM CST (1/17) 11:54 PM CST (1/17)
Length of Visible Light 10h 32m
Length of Day
9h 30m
Waxing Crescent, 38% of the Moon is Illuminated
Jan 17
Waxing Crescent
Jan 18
First Quarter
Jan 26
Full
Feb 3
Last Quarter
Feb 10
New

Hourly Weather History & Observations

Time (CST) Temp. Windchill Dew Point Humidity Pressure Visibility Wind Dir Wind Speed Gust Speed Precip Events Conditions
12:15 AM 36.0 °F 29.0 °F 32.2 °F 86% 30.08 in 10.0 mi NW 9.2 mph - N/A   Overcast
12:35 AM 35.1 °F 29.3 °F 31.5 °F 87% 30.09 in 10.0 mi WNW 6.9 mph - N/A   Overcast
12:55 AM 34.9 °F 26.6 °F 30.2 °F 83% 30.11 in 10.0 mi NW 11.5 mph - N/A   Overcast
1:15 AM 33.8 °F 27.7 °F 28.0 °F 79% 30.13 in 10.0 mi NNW 6.9 mph - N/A   Mostly Cloudy
1:35 AM 30.0 °F 21.7 °F 25.0 °F 82% 30.15 in 10.0 mi WNW 9.2 mph - N/A   Scattered Clouds
1:55 AM 29.3 °F 24.3 °F 24.6 °F 83% 30.17 in 10.0 mi WNW 4.6 mph - N/A   Mostly Cloudy
2:15 AM 27.0 °F 20.5 °F 21.9 °F 81% 30.18 in 10.0 mi WNW 5.8 mph - N/A   Scattered Clouds
2:35 AM 25.7 °F 20.1 °F 20.7 °F 81% 30.19 in 10.0 mi WNW 4.6 mph - N/A   Clear
2:55 AM 24.8 °F 16.1 °F 19.9 °F 82% 30.19 in 10.0 mi WNW 8.1 mph - N/A   Clear
3:15 AM 24.3 °F 17.3 °F 19.4 °F 82% 30.20 in 10.0 mi West 5.8 mph - N/A   Clear
3:35 AM 24.8 °F 17.9 °F 19.6 °F 81% 30.21 in 10.0 mi WNW 5.8 mph - N/A   Clear
3:55 AM 24.8 °F 14.6 °F 19.4 °F 80% 30.22 in 10.0 mi WNW 10.4 mph - N/A   Clear
4:15 AM 23.4 °F 15.2 °F 18.9 °F 83% 30.23 in 10.0 mi WNW 6.9 mph - N/A   Clear
4:35 AM 23.9 °F 13.5 °F 19.2 °F 82% 30.23 in 10.0 mi WNW 10.4 mph - N/A   Clear
4:55 AM 23.7 °F 12.6 °F 17.6 °F 77% 30.24 in 10.0 mi NW 11.5 mph - N/A   Clear
5:15 AM 23.7 °F 14.0 °F 16.7 °F 75% 30.25 in 10.0 mi NW 9.2 mph - N/A   Clear
5:35 AM 21.2 °F 11.7 °F 14.4 °F 75% 30.26 in 10.0 mi NW 8.1 mph - N/A   Clear
5:55 AM 21.2 °F 11.7 °F 13.1 °F 71% 30.27 in 10.0 mi WNW 8.1 mph - N/A   Clear
6:15 AM 21.0 °F 11.4 °F 12.9 °F 71% 30.28 in 10.0 mi NW 8.1 mph - N/A   Clear
6:35 AM 18.5 °F 10.4 °F 11.3 °F 73% 30.29 in 10.0 mi WNW 5.8 mph - N/A   Clear
6:55 AM 18.5 °F 10.4 °F 10.4 °F 71% 30.30 in 10.0 mi WNW 5.8 mph - N/A   Clear
7:15 AM 18.5 °F 9.3 °F 9.9 °F 69% 30.31 in 10.0 mi WNW 6.9 mph - N/A   Clear
7:35 AM 19.2 °F 12.5 °F 8.6 °F 63% 30.31 in 10.0 mi West 4.6 mph - N/A   Clear
7:55 AM 18.5 °F 10.4 °F 9.5 °F 68% 30.32 in 10.0 mi WNW 5.8 mph - N/A   Clear
8:15 AM 20.1 °F 12.3 °F 11.1 °F 68% 30.33 in 10.0 mi NW 5.8 mph - N/A   Clear
8:35 AM 21.2 °F 12.6 °F 11.8 °F 67% 30.34 in 10.0 mi NW 6.9 mph - N/A   Clear
8:55 AM 21.9 °F 12.5 °F 12.2 °F 66% 30.34 in 10.0 mi WNW 8.1 mph - N/A   Clear
9:15 AM 23.2 °F 14.1 °F 11.5 °F 61% 30.34 in 10.0 mi WNW 8.1 mph - N/A   Clear
9:35 AM 23.7 °F 12.6 °F 8.4 °F 52% 30.35 in 10.0 mi NW 11.5 mph - N/A   Clear
9:55 AM 23.7 °F 11.5 °F 9.1 °F 54% 30.36 in 10.0 mi NW 13.8 mph - N/A   Clear
10:15 AM 24.3 °F 12.7 °F 9.1 °F 53% 30.37 in 10.0 mi WNW 12.7 mph - N/A   Clear
10:35 AM 24.6 °F 13.2 °F 8.4 °F 50% 30.38 in 10.0 mi WNW 12.7 mph - N/A   Clear
10:55 AM 24.8 °F 14.6 °F 8.6 °F 50% 30.37 in 10.0 mi WNW 10.4 mph - N/A   Clear
11:15 AM 24.8 °F 14.0 °F 8.8 °F 51% 30.37 in 10.0 mi WNW 11.5 mph - N/A   Clear
11:35 AM 25.5 °F 15.5 °F 8.2 °F 48% 30.37 in 10.0 mi WNW 10.4 mph - N/A   Clear
11:55 AM 25.7 °F 14.6 °F 8.2 °F 48% 30.37 in 10.0 mi WNW 12.7 mph - N/A   Clear
12:15 PM 26.2 °F 14.7 °F 8.6 °F 47% 30.37 in 10.0 mi West 13.8 mph - N/A   Clear
12:35 PM 26.6 °F 17.5 °F 10.4 °F 51% 30.36 in 10.0 mi West 9.2 mph - N/A   Clear
12:55 PM 26.2 °F 15.2 °F 11.1 °F 53% 30.36 in 10.0 mi WNW 12.7 mph 19.6 mph N/A   Clear
1:15 PM 26.4 °F 16.6 °F 10.4 °F 51% 30.36 in 10.0 mi NW 10.4 mph 18.4 mph N/A   Clear
1:35 PM 26.4 °F 16.6 °F 10.2 °F 51% 30.36 in 10.0 mi West 10.4 mph - N/A   Clear
1:55 PM 27.0 °F 16.7 °F 10.0 °F 49% 30.35 in 10.0 mi West 11.5 mph - N/A   Clear
2:15 PM 27.1 °F 16.9 °F 10.8 °F 50% 30.35 in 10.0 mi West 11.5 mph - N/A   Clear
2:35 PM 27.5 °F 18.6 °F 10.8 °F 49% 30.34 in 10.0 mi WNW 9.2 mph - N/A   Clear
2:55 PM 27.3 °F 19.1 °F 10.0 °F 48% 30.34 in 10.0 mi West 8.1 mph - N/A   Clear
3:15 PM 27.5 °F 22.2 °F 11.3 °F 51% 30.34 in 10.0 mi West 4.6 mph - N/A   Clear
3:35 PM 27.5 °F 21.1 °F 11.7 °F 51% 30.35 in 10.0 mi West 5.8 mph - N/A   Clear
3:55 PM 27.5 °F 21.1 °F 12.9 °F 54% 30.35 in 10.0 mi West 5.8 mph - N/A   Clear
4:15 PM 27.3 °F 20.9 °F 12.4 °F 53% 30.35 in 10.0 mi West 5.8 mph - N/A   Clear
4:35 PM 26.2 °F 19.6 °F 13.1 °F 58% 30.35 in 10.0 mi West 5.8 mph - N/A   Clear
4:55 PM 25.2 °F 19.5 °F 12.9 °F 60% 30.36 in 10.0 mi WSW 4.6 mph - N/A   Clear
5:15 PM 24.6 °F 18.8 °F 13.3 °F 62% 30.36 in 10.0 mi WSW 4.6 mph - N/A   Clear
5:35 PM 24.3 °F 18.4 °F 13.1 °F 63% 30.37 in 10.0 mi WSW 4.6 mph - N/A   Clear
5:55 PM 24.4 °F 16.5 °F 13.1 °F 62% 30.37 in 10.0 mi WSW 6.9 mph - N/A   Clear
6:15 PM 23.7 °F 17.8 °F 13.5 °F 65% 30.37 in 10.0 mi WSW 4.6 mph - N/A   Clear
6:55 PM 21.2 °F 14.9 °F 13.1 °F 71% 30.38 in 10.0 mi SW 4.6 mph - N/A   Clear
7:35 PM 23.7 °F 15.6 °F 15.4 °F 71% 30.39 in 10.0 mi SW 6.9 mph - N/A   Clear
7:55 PM 23.5 °F 14.5 °F 16.2 °F 73% 30.39 in 10.0 mi WSW 8.1 mph - N/A   Clear
8:15 PM 21.7 °F 14.3 °F 15.3 °F 76% 30.39 in 10.0 mi WSW 5.8 mph - N/A   Clear
8:35 PM 21.2 °F 16.4 °F 15.8 °F 80% 30.39 in 10.0 mi WSW 3.5 mph - N/A   Clear
8:55 PM 21.2 °F 14.9 °F 15.3 °F 78% 30.39 in 10.0 mi SW 4.6 mph - N/A   Clear
9:15 PM 21.2 °F 13.6 °F 15.4 °F 78% 30.39 in 10.0 mi SW 5.8 mph - N/A   Clear
9:35 PM 21.2 °F 14.9 °F 15.4 °F 78% 30.39 in 10.0 mi WSW 4.6 mph - N/A   Clear
9:55 PM 21.2 °F 14.9 °F 15.8 °F 80% 30.38 in 10.0 mi WSW 4.6 mph - N/A   Clear
11:15 PM 21.2 °F 12.6 °F 16.3 °F 82% 30.39 in 10.0 mi SSW 6.9 mph - N/A   Scattered Clouds
11:35 PM 21.2 °F 16.4 °F 16.3 °F 82% 30.39 in 10.0 mi SW 3.5 mph - N/A   Mostly Cloudy
11:55 PM 19.9 °F 14.9 °F 15.3 °F 82% 30.39 in 10.0 mi SW 3.5 mph - N/A   Scattered Clouds